Pedro Gomes

Recruteur - Grêmio
25 Nov 2027
Jeudi
Processus

Personnalité

Adaptabilité (1) Ambition (9) Controverse (5) Loyauté (9) Pression (1) Professionnalisme (1) Sportivité (12) Tempérament (1)

Profil

Style d'entraînement Démocratique
Diplôme National A
Détermination 15
Gestion des joueurs 13
Motivation 13
Discipline 10
Satisfaction professionnelle
100%
Fatigue
0%
Rôle Recruteur
Salaire 116.2K p/s
Contrat 14.03.2029

Performance

Comportement Bon
Efficacité de l'entraînement
49%
Développement des joueurs
45%
Prévention des blessures
60%
Mise en place tactique
35%

Événements récents

A participé à une réunion de recrutement 14j
A participé à une réunion de recrutement 21j
A participé à une réunion de recrutement 28j
A participé à une réunion de recrutement 35j
Anniversaire 35j
A participé à une réunion de recrutement 42j
A participé à une réunion de recrutement 49j
A participé à une réunion de recrutement 56j

Suivi en cours

95
Joueur Club Statut Capacité Confiance Observé Dernière observation Dernier vote
Gonçalo Oliveira Benfica Actif 117 / 136 40% 1 20.07.2027 -
Leandro Martins Benfica Actif 83 / 87 40% 1 20.07.2027 -
Dango Ouattara Brentford Actif 158 / 163 40% 1 30.05.2027 -
Hector Ramirez Newcastle United Actif 162 / 143 40% 2 29.05.2027 -
Matt O'Riley Brighton Actif 141 / 141 40% 2 29.05.2027 -
Guille Rosas Gijón Actif 155 / 135 40% 2 29.05.2027 -
Borja Sainz Fiorentina Actif 136 / 150 40% 3 28.05.2027 -
Mats Wieffer Brighton Actif 149 / 135 40% 2 27.05.2027 -
Jacob Ramsey Newcastle United Actif 147 / 156 40% 3 25.05.2027 -
Francisco Conceição Juventus Actif 170 / 173 40% 3 25.05.2027 -
Jan Paul van Hecke Tottenham Actif 174 / 171 40% 1 24.05.2027 -
Curtis Jones Inter Actif 142 / 171 40% 1 24.05.2027 -
Jack McGlynn Stoke City Actif 129 / 144 40% 2 23.05.2027 -
Florentino Luís Ipswich Town Actif 157 / 129 40% 2 23.05.2027 -
Jack Rudoni Coventry City Actif 128 / 135 40% 2 23.05.2027 -
Boubacar Kamara Aston Villa Actif 165 / 148 40% 1 23.05.2027 -
Kiernan Dewsbury-Hall Everton Actif 158 / 165 40% 1 21.05.2027 -
Giacomo Raspadori Atalanta Actif 143 / 158 40% 3 20.05.2027 -
Callum Hudson-Odoi Nottingham Forest Actif 162 / 153 40% 2 20.05.2027 -
Ethan Galbraith Swansea City Actif 148 / 146 40% 1 19.05.2027 -
Jake O'Brien Everton Actif 163 / 132 40% 1 19.05.2027 -
Othmane Maamma Watford Actif 135 / 125 40% 1 18.05.2027 -
Alexis Saelemaekers AC Milan Actif 150 / 142 40% 1 17.05.2027 -
Morgan Whittaker Middlesbrough Actif 134 / 144 40% 4 14.05.2027 -
Nicolas Jackson Aston Villa Actif 140 / 145 40% 3 14.05.2027 -
Georginio Rutter Brighton Actif 155 / 148 40% 1 14.05.2027 -
Welington Southampton Actif 138 / 135 40% 3 12.05.2027 -
Yehor Yarmoliuk Brentford Actif 142 / 146 40% 1 11.05.2027 -
Carlos Vicente Birmingham Actif 149 / 137 40% 2 10.05.2027 -
Scott Twine Bristol City Actif 127 / 132 40% 2 07.05.2027 -
Adam Wharton Crystal Palace Actif 145 / 143 40% 1 01.05.2027 -
Xavi Simons Tottenham Actif 166 / 168 40% 1 30.04.2027 -
Derensili Sanches Fernandes Huddersfield Town Actif 116 / 140 40% 2 29.04.2027 -
Carlos Alcaraz Everton Actif 138 / 159 40% 1 28.04.2027 -
Mario Dorgeles Braga Actif 136 / 130 40% 3 25.04.2027 -
Tom Fellows Southampton Actif 122 / 138 40% 4 25.04.2027 -
Rodrigo Zalazar Sporting CP Actif 154 / 163 40% 1 24.04.2027 -
William Gomes Porto Actif 160 / 157 40% 2 22.04.2027 -
Bright Arrey-Mbi Braga Actif 144 / 134 40% 2 21.04.2027 -
Nico González Newcastle United Actif 161 / 159 40% 2 21.04.2027 -
Amadou Onana Aston Villa Actif 168 / 143 40% 1 18.04.2027 -
Fredrik Aursnes Benfica Actif 154 / 138 40% 1 17.04.2027 -
Léo Scienza Southampton Actif 138 / 132 40% 1 17.04.2027 -
Finn Azaz Southampton Actif 129 / 123 40% 4 15.04.2027 -
Iván Fresneda Sporting CP Actif 143 / 137 40% 5 13.04.2027 -
Bosun Lawal Stoke City Actif 125 / 121 40% 1 13.04.2027 -
Lewis Ferguson Bologna Actif 152 / 129 40% 1 12.04.2027 -
Pau Víctor AVS Actif 136 / 134 40% 4 11.04.2027 -
Milan van Ewijk Mansfield Town Actif 144 / 123 40% 1 09.04.2027 -
Noah Sadiki Sunderland Actif 135 / 155 40% 1 09.04.2027 -
Isaiah Jones Luton Town Actif 113 / 137 40% 1 05.04.2027 -
Luke McNally Bristol City Actif 133 / 117 40% 1 04.04.2027 -
Jesús Orozco Chiquete Cruz Azul Actif 137 / 133 40% 3 01.04.2027 -
Soungoutou Magassa West Ham United Actif 143 / 134 40% 1 01.04.2027 -
Sergi Altimira Sporting CP Actif 146 / 136 40% 1 31.03.2027 -
Víctor Gómez Braga Actif 143 / 136 40% 3 29.03.2027 -
Valery Académico de Viseu Actif 120 / 139 40% 1 29.03.2027 -
Zeno Debast Sporting CP Actif 153 / 152 40% 2 28.03.2027 -
Paulo Moreira Farense Actif 134 / 119 40% 2 28.03.2027 -
Erick Sánchez OGC Nice Actif 157 / 155 40% 3 27.03.2027 -
Gabri Martínez Braga Actif 136 / 119 40% 2 26.03.2027 -
Imrân Louza Watford Actif 133 / 140 40% 1 26.03.2027 -
Jacques Ekomié Wrexham Actif 116 / 136 40% 1 26.03.2027 -
Ozziel Herrera Tigres Actif 122 / 136 40% 4 24.03.2027 -
Alberto Costa Porto Actif 160 / 153 40% 6 23.03.2027 -
Tyrell Malacia Monaco Actif 133 / 140 40% 1 21.03.2027 -
Nicolás Fernández Mercau Shakhtar Actif 133 / 149 40% 3 20.03.2027 -
Eduardo Quaresma Sporting CP Actif 142 / 147 40% 1 19.03.2027 -
Alan Varela Porto Actif 142 / 155 40% 3 17.03.2027 -
Félix Lemaréchal Club Brugge Actif 147 / 150 40% 2 17.03.2027 -
Rodrigo Pinheiro Famalicao Actif 113 / 126 40% 2 16.03.2027 -
Francisco Moura Lusitânia Lourosa Actif 130 / 154 40% 3 14.03.2027 -
Marcelo Allende Mamelodi Sundowns Actif 147 / 140 40% 1 12.03.2027 -
Kwadwo Baah Watford Actif 112 / 136 40% 1 12.03.2027 -
Naïs Djouahra Arouca Actif 127 / 113 40% 2 08.03.2027 -
Santi García Gil Vicente Actif 136 / 116 40% 2 08.03.2027 -
Max Bird Birmingham Actif 118 / 124 40% 1 08.03.2027 -
Gonçalo Inácio Sporting CP Actif 132 / 145 40% 2 03.03.2027 -
Sikou Niakaté Braga Actif 122 / 143 40% 1 03.03.2027 -
Gustaf Lagerbielke Braga Actif 138 / 124 40% 1 02.03.2027 -
Brian Rodríguez Club America Actif 115 / 131 40% 1 28.02.2027 -
Luís Guilherme Sporting CP Actif 121 / 118 40% 2 27.02.2027 -
Figueiredo Alverca Actif 118 / 141 40% 1 23.02.2027 -
Rafik Guitane Estoril Praia Actif 145 / 148 40% 1 21.02.2027 -
Ousmane Diomande Nottingham Forest Actif 141 / 138 40% 1 21.02.2027 -
João Simões Sporting CP Actif 127 / 131 40% 3 20.02.2027 -
Bamba Dieng Crvena Zvezda Actif 123 / 144 40% 1 18.02.2027 -
Ilay Camara Anderlecht Actif 140 / 145 40% 1 14.02.2027 -
Mathias De Amorim Famalicao Actif 130 / 129 40% 1 10.02.2027 -
Dara O'Shea Ipswich Town Actif 141 / 125 40% 1 07.02.2027 -
Diego Lainez Tigres Actif 119 / 134 40% 1 03.02.2027 -
Heorhii Sudakov Benfica Actif 148 / 156 40% 1 03.02.2027 -
Dinis Pinto Moreirense Actif 119 / 120 40% 1 30.11.2026 -
Ricardo Horta Braga Actif 148 / 136 40% 1 03.08.2026 -
Dodi Lukébakio Benfica Actif 128 / 144 40% 1 03.08.2026 -